LUCH (OLYMP-K 1) (40258 NORAD) Tracking and Keplerian Element Data

This shows tracking and keplerian element data for the satellite.

Feedback or suggestion? Click here.




ElementValue
Catalog40258
NameLUCH (OLYMP-K 1)
Epoch Orbit3552
Epoch Day159.50408609
Epoch Year2024
RAAN95.2798
Inclination0.1184
Eccentricity0.0002513
Argument of Perigee333.2398
Mean Anonmoly351.1417
Mean Motion1.00273434
Decay Rate-1.41E-06
L11 40258U 14058A 24159.50408609 -.00000141 00000+0 00000+0 0 9995
L22 40258 0.1184 95.2798 0002513 333.2398 351.1417 1.00273434 35528



Live tracking and technical data element details for LUCH (OLYMP-K 1) (NORAD 40258). LUCH (OLYMP-K 1) can be tracked NOW for your location showing map with azimuth and elevation plus other details from your city location.







IsCatalogInMostPopularTable: catalog: 40258, numindb: 871
Update: records affected: 1



GetName: 40258 LUCH (OLYMP-K 1)

Hit Count: updated at: Tue, 17 Sep 2024 13:07:26 GMT